Regional Weather Roundup
Issued by NWS Upton, NY

Current Version | Previous Version | Text Only | Print | Product List | Glossary Off
Versions: 1 2 3 4 5 6 7 8 9 10 11 12 13 14 15 16 17 18 19 20 21 22 23 24 25 26 27
000 ASUS41 KOKX 241708 RWROKX REGIONAL WEATHER ROUNDUP NATIONAL WEATHER SERVICE NEW YORK NY 100 PM EDT FRI MAR 24 2017 NOTE: "FAIR" INDICATES FEW OR NO CLOUDS BELOW 12,000 FEET WITH NO SIGNIFICANT WEATHER AND/OR OBSTRUCTIONS TO VISIBILITY. NYZ071-072-176-178-NJZ106-104-241800- NEW YORK CITY METRO AREA CITY SKY/WX TMP DP RH WIND PRES REMARKS Central Park CLOUDY 47 22 37 W8 30.34F Wall St Helipt CLOUDY 46 25 42 SW10 30.34F LaGuardia APRT CLOUDY 49 22 34 S14G26 30.32F Kennedy INTL CLOUDY 45 35 68 S22 30.34F Breezy Point N/A 43 N/A N/A S13 N/A Newark/Liberty CLOUDY 48 23 37 S17G25 30.33F Teterboro LGT RAIN 46 25 43 SW14G24 30.32F $$ NYZ177-179-078>081-241800- LONG ISLAND NEW YORK CITY SKY/WX TMP DP RH WIND PRES REMARKS Jones Beach N/A 43 N/A N/A S17G24 N/A Matinecock PT NOT AVBL Farmingdale CLOUDY 45 31 58 S22G28 30.34F MacArthur/ISP CLOUDY 45 31 58 S14G28 30.34F Shirley CLOUDY 44 33 65 S16G28 30.36F Westhampton CLOUDY 44 30 57 S14G23 30.38F East Hampton CLOUDY 43 31 62 S14G22 30.36F Montauk N/A 43 32 65 S13G22 30.39F $$ NYZ052-065-067-241800- HUDSON VALLEY CITY SKY/WX TMP DP RH WIND PRES REMARKS White Plains LGT RAIN 43 24 47 SW9G17 30.31F Newburgh LGT RAIN 37 32 81 S9 30.29F WCI 31 Montgomery LGT RAIN 37 31 78 SW9 30.27F WCI 30 Poughkeepsie CLOUDY 39 26 59 VRB7 30.28F WCI 34 Albany CLOUDY 36 23 59 S16 30.19F WCI 26 $$ NJZ001-105-106-008-010-013-015-019>022-104-241800- NEW JERSEY CITY SKY/WX TMP DP RH WIND PRES REMARKS Newark/Liberty CLOUDY 48 23 37 S17G25 30.33F Teterboro LGT RAIN 46 25 43 SW14G24 30.32F Caldwell LGT RAIN 44 27 51 W6 30.33F Somerville CLOUDY 46 27 47 SW13G21 30.31F Linden CLOUDY 48 22 36 SW5 30.33F Sussex LGT RAIN 37 33 85 SW5 30.28F WCI 33 Andover N/A 38 33 82 S7 30.30F WCI 33 Trenton CLOUDY 48 28 46 SW14G26 30.33F Millville CLOUDY 50 29 44 SW9G23 30.37F Atlantic City PTSUNNY 53 21 28 SW21G30 30.37F Wrightstown CLOUDY 53 25 34 SW22G33 30.30F Toms River CLOUDY 56 23 27 SW18G28 30.35F Belmar CLOUDY 51 20 29 SW16G24 30.33F $$ PAZ047>061-062-071-241800- EASTERN PENNSYLVANIA CITY SKY/WX TMP DP RH WIND PRES REMARKS Philadelphia CLOUDY 51 28 41 SW21G26 30.35F Allentown CLOUDY 43 30 60 SW7 30.31F Scranton CLOUDY 36 32 85 VRB7 30.22F WCI 30 $$ CTZ002-004>006-009-010-012-RIZ004-006-007-MAZ004-011-015-241800- SOUTHERN NEW ENGLAND IN CT CITY SKY/WX TMP DP RH WIND PRES REMARKS Bradley INTL LGT RAIN 38 30 73 S13 30.28F WCI 30 Hartford CLOUDY 41 27 57 S15G25 30.30F Danbury LGT RAIN 42 26 53 S14G28 30.29F Wtrbury/Oxford CLOUDY 41 21 45 SW13G21 30.30F Bridgeport CLOUDY 46 30 53 SW16 30.33F Meriden CLOUDY 44 26 49 S15G26 30.31F New Haven CLOUDY 43 29 57 S13 30.34F Chester NOT AVBL Groton CLOUDY 43 31 62 S20 30.34F Wilimantic LGT RAIN 42 27 55 S13 30.32F IN RI CITY SKY/WX TMP DP RH WIND PRES REMARKS Providence CLOUDY 42 25 50 SW16G25 30.36F Block Island CLOUDY 42 31 64 SW18 30.38F Westerly CLOUDY 44 31 60 SW14G24 30.37F IN MA CITY SKY/WX TMP DP RH WIND PRES REMARKS Boston LGT RAIN 40 27 59 S20G37 30.32F WCI 30 Worcester SNOW 32 28 85 S15 30.25F VSB 1/2 WCI 22 Westfield LGT SNOW 37 28 70 S10 30.26F WCI 30 Provincetown CLOUDY 39 24 55 S14G22 30.40F WCI 31 Nantucket CLOUDY 39 27 62 S16 30.43F WCI 30 $$ ANZ330-335-338-340-345-350-353-355-241800- COASTAL MARINE OBSERVATIONS STATION/POSITION TIME SKY/WX TEMP WIND PRES VSBY WAVE AIR SEA DIR/SP/G HT/PER (UTC) (F) (DEG/KT/KT) (MB) (MI) (FT/S) NY HARB ENTRANCE 1550 42 41 200/ 21/ 23 1029.4 4/ 5 20 S FIRE ISLAND 1650 42 40 200/ 17/ 21 1028.6 4/ 6 GREAT SOUTH BAY NOT AVBL 23 SSW MONTAUK P 1550 43 42 1030.8 5/ 5 15 E BARNEGAT LI 1630 42 N/A 4/ 5 HUDSON CANYON 1550 45 44 210/ 16/ 17 1032.3 3/ 4 KINGS POINT 1648 43 38 1026.6 EXECUTION ROCKS NOT AVBL CENTRAL LI SOUND 1630 41 200/ 16/ 19 N/A 2/ 4 EASTERN LI SOUND NOT AVBL ROBBINS REEF 1648 46 210/ 15/ 19 1027.3 $$ >>>>>>>>>>>>>>>>>>>>>>>>>>>> KEY <<<<<<<<<<<<<<<<<<<<<<<<<<< > < > SKY/WX - Sky Condition/Present Weather < > TMP - Temperature in Fahrenheit < > DP - Dew Point in Fahrenheit < > RH - Relative Humidity in Percent < > WIND - Direction (from) and Speed in MPH < > PRES - Mean Sea Level Pressure (inches of Hg) < > WCI - Wind Chill Index < > VSB - VISIBILITY IN MILES < > HX - HEAT INDEX < > TC - TEMPERATURE IN CELSIUS < > VRB - VARIABLE WIND DIRECTION < > < >>>>>>>>>>>>>>>>>>>>>>>>>>>> KEY <<<<<<<<<<<<<<<<<<<<<<<<<<<

USA.gov is the U.S. government's official web portal to all federal, state and local government web resources and services.